Year,Month,Day,Hour,Minute,Value (Times are PST for temperature in C)
2020,09,30,00,00,18.30
2020,09,30,00,01,18.30
2020,09,30,00,02,18.20
2020,09,30,00,03,18.20
2020,09,30,00,04,18.20
2020,09,30,00,05,18.10
2020,09,30,00,06,18.10
2020,09,30,00,07,18.00
2020,09,30,00,08,18.00
2020,09,30,00,09,18.00
2020,09,30,00,10,17.90
2020,09,30,00,11,17.90
2020,09,30,00,12,17.90
2020,09,30,00,13,17.90
2020,09,30,00,14,17.80
2020,09,30,00,15,17.80
2020,09,30,00,16,17.80
2020,09,30,00,17,17.80
2020,09,30,00,18,17.80
2020,09,30,00,19,17.70
2020,09,30,00,20,17.70
2020,09,30,00,21,17.70
2020,09,30,00,22,17.60
2020,09,30,00,23,17.60
2020,09,30,00,24,17.60
2020,09,30,00,25,17.50
2020,09,30,00,26,17.50
2020,09,30,00,27,17.50
2020,09,30,00,28,17.40
2020,09,30,00,29,17.40
2020,09,30,00,30,17.40
2020,09,30,00,31,17.40
2020,09,30,00,32,17.30
2020,09,30,00,33,17.30
2020,09,30,00,34,17.30
2020,09,30,00,35,17.20
2020,09,30,00,36,17.20
2020,09,30,00,37,17.20
2020,09,30,00,38,17.20
2020,09,30,00,39,17.20
2020,09,30,00,40,17.20
2020,09,30,00,41,17.10
2020,09,30,00,42,17.10
2020,09,30,00,43,17.10
2020,09,30,00,44,17.10
2020,09,30,00,45,17.10
2020,09,30,00,46,17.10
2020,09,30,00,47,17.10
2020,09,30,00,48,17.10
2020,09,30,00,49,17.00
2020,09,30,00,50,17.00
2020,09,30,00,51,17.00
2020,09,30,00,52,17.00
2020,09,30,00,53,17.00
2020,09,30,00,54,17.00
2020,09,30,00,55,17.00
2020,09,30,00,56,16.90
2020,09,30,00,57,16.90
2020,09,30,00,58,16.90
2020,09,30,00,59,16.90
2020,09,30,01,00,16.90
2020,09,30,01,01,16.90
2020,09,30,01,02,17.00
2020,09,30,01,03,17.00
2020,09,30,01,04,17.00
2020,09,30,01,05,17.00
2020,09,30,01,06,17.00
2020,09,30,01,07,17.00
2020,09,30,01,08,17.10
2020,09,30,01,09,17.10
2020,09,30,01,10,17.10
2020,09,30,01,11,17.20
2020,09,30,01,12,17.20
2020,09,30,01,13,17.20
2020,09,30,01,14,17.30
2020,09,30,01,15,17.30
2020,09,30,01,16,17.30
2020,09,30,01,17,17.40
2020,09,30,01,18,17.40
2020,09,30,01,19,17.50
2020,09,30,01,20,17.50
2020,09,30,01,21,17.60
2020,09,30,01,22,17.60
2020,09,30,01,23,17.70
2020,09,30,01,24,17.70
2020,09,30,01,25,17.80
2020,09,30,01,26,17.80
2020,09,30,01,27,17.80
2020,09,30,01,28,17.80
2020,09,30,01,29,17.80
2020,09,30,01,30,17.80
2020,09,30,01,31,17.80
2020,09,30,01,32,17.80
2020,09,30,01,33,17.80
2020,09,30,01,34,17.80
2020,09,30,01,35,17.80
2020,09,30,01,36,17.80
2020,09,30,01,37,17.80
2020,09,30,01,38,17.80
2020,09,30,01,39,17.80
2020,09,30,01,40,17.80
2020,09,30,01,41,17.80
2020,09,30,01,42,17.70
2020,09,30,01,43,17.70
2020,09,30,01,44,17.70
2020,09,30,01,45,17.70
2020,09,30,01,46,17.70
2020,09,30,01,47,17.80
2020,09,30,01,48,17.80
2020,09,30,01,49,17.80
2020,09,30,01,50,17.80
2020,09,30,01,51,17.80
2020,09,30,01,52,17.80
2020,09,30,01,53,17.90
2020,09,30,01,54,17.90
2020,09,30,01,55,17.90
2020,09,30,01,56,17.90
2020,09,30,01,57,17.90
2020,09,30,01,58,17.90
2020,09,30,01,59,17.90
2020,09,30,02,00,17.90
2020,09,30,02,01,18.00
2020,09,30,02,02,18.00
2020,09,30,02,03,18.10
2020,09,30,02,04,18.10
2020,09,30,02,05,18.10
2020,09,30,02,06,18.20
2020,09,30,02,07,18.20
2020,09,30,02,08,18.20
2020,09,30,02,09,18.20
2020,09,30,02,10,18.20
2020,09,30,02,11,18.20
2020,09,30,02,12,18.20
2020,09,30,02,13,18.20
2020,09,30,02,14,18.20
2020,09,30,02,15,18.20
2020,09,30,02,16,18.20
2020,09,30,02,17,18.20
2020,09,30,02,18,18.10
2020,09,30,02,19,18.10
2020,09,30,02,20,18.10
2020,09,30,02,21,18.10
2020,09,30,02,22,18.10
2020,09,30,02,23,18.10
2020,09,30,02,24,18.00
2020,09,30,02,25,18.00
2020,09,30,02,26,17.90
2020,09,30,02,27,17.90
2020,09,30,02,28,17.90
2020,09,30,02,29,17.90
2020,09,30,02,30,17.80
2020,09,30,02,31,17.80
2020,09,30,02,32,17.80
2020,09,30,02,33,17.70
2020,09,30,02,34,17.70
2020,09,30,02,35,17.70
2020,09,30,02,36,17.60
2020,09,30,02,37,17.60
2020,09,30,02,38,17.60
2020,09,30,02,39,17.60
2020,09,30,02,40,17.50
2020,09,30,02,41,17.50
2020,09,30,02,42,17.40
2020,09,30,02,43,17.40
2020,09,30,02,44,17.30
2020,09,30,02,45,17.30
2020,09,30,02,46,17.30
2020,09,30,02,47,17.20
2020,09,30,02,48,17.20
2020,09,30,02,49,17.20
2020,09,30,02,50,17.10
2020,09,30,02,51,17.10
2020,09,30,02,52,17.10
2020,09,30,02,53,17.10
2020,09,30,02,54,17.10
2020,09,30,02,55,17.10
2020,09,30,02,56,17.00
2020,09,30,02,57,17.00
2020,09,30,02,58,17.00
2020,09,30,02,59,16.90
2020,09,30,03,00,16.90
2020,09,30,03,01,16.90
2020,09,30,03,02,16.90
2020,09,30,03,03,16.90
2020,09,30,03,04,16.90
2020,09,30,03,05,16.90
2020,09,30,03,06,16.80
2020,09,30,03,07,16.80
2020,09,30,03,08,16.90
2020,09,30,03,09,16.90
2020,09,30,03,10,16.90
2020,09,30,03,11,16.90
2020,09,30,03,12,16.90
2020,09,30,03,13,16.90
2020,09,30,03,14,16.90
2020,09,30,03,15,16.90
2020,09,30,03,16,16.90
2020,09,30,03,17,16.80
2020,09,30,03,18,16.80
2020,09,30,03,19,16.80
2020,09,30,03,20,16.80
2020,09,30,03,21,16.80
2020,09,30,03,22,16.80
2020,09,30,03,23,16.80
2020,09,30,03,24,16.80
2020,09,30,03,25,16.70
2020,09,30,03,26,16.70
2020,09,30,03,27,16.70
2020,09,30,03,28,16.70
2020,09,30,03,29,16.60
2020,09,30,03,30,16.60
2020,09,30,03,31,16.60
2020,09,30,03,32,16.60
2020,09,30,03,33,16.50
2020,09,30,03,34,16.50
2020,09,30,03,35,16.50
2020,09,30,03,36,16.40
2020,09,30,03,37,16.40
2020,09,30,03,38,16.40
2020,09,30,03,39,16.40
2020,09,30,03,40,16.40
2020,09,30,03,41,16.30
2020,09,30,03,42,16.30
2020,09,30,03,43,16.30
2020,09,30,03,44,16.30
2020,09,30,03,45,16.30
2020,09,30,03,46,16.30
2020,09,30,03,47,16.30
2020,09,30,03,48,16.30
2020,09,30,03,49,16.30
2020,09,30,03,50,16.30
2020,09,30,03,51,16.30
2020,09,30,03,52,16.30
2020,09,30,03,53,16.20
2020,09,30,03,54,16.20
2020,09,30,03,55,16.20
2020,09,30,03,56,16.20
2020,09,30,03,57,16.20
2020,09,30,03,58,16.20
2020,09,30,03,59,16.20
2020,09,30,04,00,16.20
2020,09,30,04,01,16.20
2020,09,30,04,02,16.20
2020,09,30,04,03,16.20
2020,09,30,04,04,16.10
2020,09,30,04,05,16.10
2020,09,30,04,06,16.10
2020,09,30,04,07,16.10
2020,09,30,04,08,16.10
2020,09,30,04,09,16.10
2020,09,30,04,10,16.10
2020,09,30,04,11,16.10
2020,09,30,04,12,16.10
2020,09,30,04,13,16.10
2020,09,30,04,14,16.00
2020,09,30,04,15,16.00
2020,09,30,04,16,16.00
2020,09,30,04,17,15.90
2020,09,30,04,18,15.90
2020,09,30,04,19,15.90
2020,09,30,04,20,15.90
2020,09,30,04,21,15.90
2020,09,30,04,22,15.80
2020,09,30,04,23,15.90
2020,09,30,04,24,15.80
2020,09,30,04,25,15.80
2020,09,30,04,26,15.80
2020,09,30,04,27,15.80
2020,09,30,04,28,15.80
2020,09,30,04,29,15.80
2020,09,30,04,30,15.90
2020,09,30,04,31,15.90
2020,09,30,04,32,15.90
2020,09,30,04,33,15.90
2020,09,30,04,34,16.00
2020,09,30,04,35,16.00
2020,09,30,04,36,16.10
2020,09,30,04,37,16.10
2020,09,30,04,38,16.10
2020,09,30,04,39,16.10
2020,09,30,04,40,16.20
2020,09,30,04,41,16.20
2020,09,30,04,42,16.20
2020,09,30,04,43,16.20
2020,09,30,04,44,16.30
2020,09,30,04,45,16.30
2020,09,30,04,46,16.30
2020,09,30,04,47,16.40
2020,09,30,04,48,16.40
2020,09,30,04,49,16.40
2020,09,30,04,50,16.50
2020,09,30,04,51,16.50
2020,09,30,04,52,16.50
2020,09,30,04,53,16.60
2020,09,30,04,54,16.50
2020,09,30,04,55,16.50
2020,09,30,04,56,16.50
2020,09,30,04,57,16.50
2020,09,30,04,58,16.40
2020,09,30,04,59,16.40
2020,09,30,05,00,16.40
2020,09,30,05,01,16.40
2020,09,30,05,02,16.40
2020,09,30,05,03,16.40
2020,09,30,05,04,16.40
2020,09,30,05,05,16.40
2020,09,30,05,06,16.40
2020,09,30,05,07,16.40
2020,09,30,05,08,16.40
2020,09,30,05,09,16.40
2020,09,30,05,10,16.50
2020,09,30,05,11,16.50
2020,09,30,05,12,16.50
2020,09,30,05,13,16.50
2020,09,30,05,14,16.60
2020,09,30,05,15,16.60
2020,09,30,05,16,16.60
2020,09,30,05,17,16.60
2020,09,30,05,18,16.60
2020,09,30,05,19,16.60
2020,09,30,05,20,16.60
2020,09,30,05,21,16.60
2020,09,30,05,22,16.60
2020,09,30,05,23,16.60
2020,09,30,05,24,16.70
2020,09,30,05,25,16.70
2020,09,30,05,26,16.70
2020,09,30,05,27,16.70
2020,09,30,05,28,16.80
2020,09,30,05,29,16.80
2020,09,30,05,30,16.80
2020,09,30,05,31,16.80
2020,09,30,05,32,16.80
2020,09,30,05,33,16.80
2020,09,30,05,34,16.80
2020,09,30,05,35,16.70
2020,09,30,05,36,16.70
2020,09,30,05,37,16.70
2020,09,30,05,38,16.70
2020,09,30,05,39,16.70
2020,09,30,05,40,16.60
2020,09,30,05,41,16.60
2020,09,30,05,42,16.60
2020,09,30,05,43,16.60
2020,09,30,05,44,16.60
2020,09,30,05,45,16.60
2020,09,30,05,46,16.60
2020,09,30,05,47,16.60
2020,09,30,05,48,16.60
2020,09,30,05,49,16.60
2020,09,30,05,50,16.60
2020,09,30,05,51,16.60
2020,09,30,05,52,16.60
2020,09,30,05,53,16.60
2020,09,30,05,54,16.60
2020,09,30,05,55,16.60
2020,09,30,05,56,16.60
2020,09,30,05,57,16.60
2020,09,30,05,58,16.50
2020,09,30,05,59,16.50
2020,09,30,06,00,16.50
2020,09,30,06,01,16.50
2020,09,30,06,02,16.50
2020,09,30,06,03,16.50
2020,09,30,06,04,16.40
2020,09,30,06,05,16.40
2020,09,30,06,06,16.40
2020,09,30,06,07,16.40
2020,09,30,06,08,16.30
2020,09,30,06,09,16.30
2020,09,30,06,10,16.30
2020,09,30,06,11,16.30
2020,09,30,06,12,16.30
2020,09,30,06,13,16.30
2020,09,30,06,14,16.30
2020,09,30,06,15,16.30
2020,09,30,06,16,16.30
2020,09,30,06,17,16.30
2020,09,30,06,18,16.30
2020,09,30,06,19,16.30
2020,09,30,06,20,16.30
2020,09,30,06,21,16.30
2020,09,30,06,22,16.30
2020,09,30,06,23,16.30
2020,09,30,06,24,16.20
2020,09,30,06,25,16.20
2020,09,30,06,26,16.20
2020,09,30,06,27,16.20
2020,09,30,06,28,16.20
2020,09,30,06,29,16.20
2020,09,30,06,30,16.20
2020,09,30,06,31,16.20
2020,09,30,06,32,16.20
2020,09,30,06,33,16.20
2020,09,30,06,34,16.10
2020,09,30,06,35,16.10
2020,09,30,06,36,16.10
2020,09,30,06,37,16.10
2020,09,30,06,38,16.10
2020,09,30,06,39,16.10
2020,09,30,06,40,16.20
2020,09,30,06,41,16.20
2020,09,30,06,42,16.20
2020,09,30,06,43,16.20
2020,09,30,06,44,16.20
2020,09,30,06,45,16.20
2020,09,30,06,46,16.20
2020,09,30,06,47,16.20
2020,09,30,06,48,16.10
2020,09,30,06,49,16.10
2020,09,30,06,50,16.10
2020,09,30,06,51,16.10
2020,09,30,06,52,16.10
2020,09,30,06,53,16.10
2020,09,30,06,54,16.10
2020,09,30,06,55,16.10
2020,09,30,06,56,16.10
2020,09,30,06,57,16.10
2020,09,30,06,58,16.10
2020,09,30,06,59,16.10
2020,09,30,07,00,16.10
2020,09,30,07,01,16.10
2020,09,30,07,02,16.10
2020,09,30,07,03,16.10
2020,09,30,07,04,16.10
2020,09,30,07,05,16.10
2020,09,30,07,06,16.10
2020,09,30,07,07,16.10
2020,09,30,07,08,16.10
2020,09,30,07,09,16.10
2020,09,30,07,10,16.20
2020,09,30,07,11,16.20
2020,09,30,07,12,16.20
2020,09,30,07,13,16.20
2020,09,30,07,14,16.20
2020,09,30,07,15,16.20
2020,09,30,07,16,16.20
2020,09,30,07,17,16.20
2020,09,30,07,18,16.20
2020,09,30,07,19,16.30
2020,09,30,07,20,16.30
2020,09,30,07,21,16.30
2020,09,30,07,22,16.40
2020,09,30,07,23,16.40
2020,09,30,07,24,16.40
2020,09,30,07,25,16.50
2020,09,30,07,26,16.50
2020,09,30,07,27,16.50
2020,09,30,07,28,16.50
2020,09,30,07,29,16.50
2020,09,30,07,30,16.40
2020,09,30,07,31,16.50
2020,09,30,07,32,16.50
2020,09,30,07,33,16.40
2020,09,30,07,34,16.40
2020,09,30,07,35,16.40
2020,09,30,07,36,16.40
2020,09,30,07,37,16.40
2020,09,30,07,38,16.30
2020,09,30,07,39,16.30
2020,09,30,07,40,16.30
2020,09,30,07,41,16.30
2020,09,30,07,42,16.30
2020,09,30,07,43,16.30
2020,09,30,07,44,16.30
2020,09,30,07,45,16.30
2020,09,30,07,46,16.30
2020,09,30,07,47,16.20
2020,09,30,07,48,16.20
2020,09,30,07,49,16.20
2020,09,30,07,50,16.20
2020,09,30,07,51,16.20
2020,09,30,07,52,16.20
2020,09,30,07,53,16.20
2020,09,30,07,54,16.20
2020,09,30,07,55,16.20
2020,09,30,07,56,16.20
2020,09,30,07,57,16.20
2020,09,30,07,58,16.20
2020,09,30,07,59,16.20
2020,09,30,08,00,16.20
2020,09,30,08,01,16.20
2020,09,30,08,02,16.20
2020,09,30,08,03,16.20
2020,09,30,08,04,16.30
2020,09,30,08,05,16.30
2020,09,30,08,06,16.30
2020,09,30,08,07,16.30
2020,09,30,08,08,16.30
2020,09,30,08,09,16.30
2020,09,30,08,10,16.40
2020,09,30,08,11,16.40
2020,09,30,08,12,16.40
2020,09,30,08,13,16.40
2020,09,30,08,14,16.40
2020,09,30,08,15,16.40
2020,09,30,08,16,16.40
2020,09,30,08,17,16.40
2020,09,30,08,18,16.40
2020,09,30,08,19,16.40
2020,09,30,08,20,16.40
2020,09,30,08,21,16.50
2020,09,30,08,22,16.40
2020,09,30,08,23,16.50
2020,09,30,08,24,16.50
2020,09,30,08,25,16.50
2020,09,30,08,26,16.50
2020,09,30,08,27,16.50
2020,09,30,08,28,16.50
2020,09,30,08,29,16.50
2020,09,30,08,30,16.50
2020,09,30,08,31,16.50
2020,09,30,08,32,16.50
2020,09,30,08,33,16.50
2020,09,30,08,34,16.50
2020,09,30,08,35,16.50
2020,09,30,08,36,16.50
2020,09,30,08,37,16.50
2020,09,30,08,38,16.50
2020,09,30,08,39,16.50
2020,09,30,08,40,16.60
2020,09,30,08,41,16.60
2020,09,30,08,42,16.60
2020,09,30,08,43,16.60
2020,09,30,08,44,16.60
2020,09,30,08,45,16.60
2020,09,30,08,46,16.60
2020,09,30,08,47,16.60
2020,09,30,08,48,16.60
2020,09,30,08,49,16.60
2020,09,30,08,50,16.70
2020,09,30,08,51,16.70
2020,09,30,08,52,16.70
2020,09,30,08,53,16.70
2020,09,30,08,54,16.70
2020,09,30,08,55,16.70
2020,09,30,08,56,16.70
2020,09,30,08,57,16.70
2020,09,30,08,58,16.70
2020,09,30,08,59,16.70
2020,09,30,09,00,16.80
2020,09,30,09,01,16.80
2020,09,30,09,02,16.80
2020,09,30,09,03,16.80
2020,09,30,09,04,16.90
2020,09,30,09,05,16.90
2020,09,30,09,06,16.90
2020,09,30,09,07,16.90
2020,09,30,09,08,16.90
2020,09,30,09,09,16.90
2020,09,30,09,10,16.90
2020,09,30,09,11,17.00
2020,09,30,09,12,17.00
2020,09,30,09,13,17.00
2020,09,30,09,14,17.00
2020,09,30,09,15,17.00
2020,09,30,09,16,17.10
2020,09,30,09,17,17.10
2020,09,30,09,18,17.10
2020,09,30,09,19,17.10
2020,09,30,09,20,17.10
2020,09,30,09,21,17.10
2020,09,30,09,22,17.10
2020,09,30,09,23,17.20
2020,09,30,09,24,17.20
2020,09,30,09,25,17.20
2020,09,30,09,26,17.20
2020,09,30,09,27,17.20
2020,09,30,09,28,17.30
2020,09,30,09,29,17.30
2020,09,30,09,30,17.30
2020,09,30,09,31,17.30
2020,09,30,09,32,17.40
2020,09,30,09,33,17.40
2020,09,30,09,34,17.40
2020,09,30,09,35,17.40
2020,09,30,09,36,17.50
2020,09,30,09,37,17.50
2020,09,30,09,38,17.60
2020,09,30,09,39,17.60
2020,09,30,09,40,17.60
2020,09,30,09,41,17.70
2020,09,30,09,42,17.70
2020,09,30,09,43,17.70
2020,09,30,09,44,17.70
2020,09,30,09,45,17.80
2020,09,30,09,46,17.80
2020,09,30,09,47,17.80
2020,09,30,09,48,17.80
2020,09,30,09,49,17.80
2020,09,30,09,50,17.90
2020,09,30,09,51,17.90
2020,09,30,09,52,17.90
2020,09,30,09,53,17.90
2020,09,30,09,54,18.00
2020,09,30,09,55,18.00
2020,09,30,09,56,18.00
2020,09,30,09,57,18.00
2020,09,30,09,58,18.10
2020,09,30,09,59,18.10
2020,09,30,10,00,18.10
2020,09,30,10,01,18.10
2020,09,30,10,02,18.10
2020,09,30,10,03,18.10
2020,09,30,10,04,18.10
2020,09,30,10,05,18.10
2020,09,30,10,06,18.10
2020,09,30,10,07,18.20
2020,09,30,10,08,18.20
2020,09,30,10,09,18.20
2020,09,30,10,10,18.20
2020,09,30,10,11,18.30
2020,09,30,10,12,18.30
2020,09,30,10,13,18.30
2020,09,30,10,14,18.40
2020,09,30,10,15,18.40
2020,09,30,10,16,18.40
2020,09,30,10,17,18.50
2020,09,30,10,18,18.50
2020,09,30,10,19,18.60
2020,09,30,10,20,18.60
2020,09,30,10,21,18.70
2020,09,30,10,22,18.70
2020,09,30,10,23,18.80
2020,09,30,10,24,18.80
2020,09,30,10,25,18.80
2020,09,30,10,26,18.80
2020,09,30,10,27,18.90
2020,09,30,10,28,18.90
2020,09,30,10,29,18.90
2020,09,30,10,30,19.00
2020,09,30,10,31,19.00
2020,09,30,10,32,19.10
2020,09,30,10,33,19.10
2020,09,30,10,34,19.20
2020,09,30,10,35,19.20
2020,09,30,10,36,19.30
2020,09,30,10,37,19.30
2020,09,30,10,38,19.30
2020,09,30,10,39,19.30
2020,09,30,10,40,19.40
2020,09,30,10,41,19.40
2020,09,30,10,42,19.40
2020,09,30,10,43,19.50
2020,09,30,10,44,19.50
2020,09,30,10,45,19.60
2020,09,30,10,46,19.60
2020,09,30,10,47,19.50
2020,09,30,10,48,19.50
2020,09,30,10,49,19.40
2020,09,30,10,50,19.30
2020,09,30,10,51,19.30
2020,09,30,10,52,19.20
2020,09,30,10,53,19.10
2020,09,30,10,54,19.00
2020,09,30,10,55,18.90
2020,09,30,10,56,18.90
2020,09,30,10,57,18.80
2020,09,30,10,58,18.80
2020,09,30,10,59,18.80
2020,09,30,11,00,18.90
2020,09,30,11,01,18.90
2020,09,30,11,02,18.90
2020,09,30,11,03,18.90
2020,09,30,11,04,18.90
2020,09,30,11,05,18.90
2020,09,30,11,06,19.00
2020,09,30,11,07,19.00
2020,09,30,11,08,19.10
2020,09,30,11,09,19.10
2020,09,30,11,10,19.10
2020,09,30,11,11,19.10
2020,09,30,11,12,19.20
2020,09,30,11,13,19.20
2020,09,30,11,14,19.20
2020,09,30,11,15,19.30
2020,09,30,11,16,19.30
2020,09,30,11,17,19.40
2020,09,30,11,18,19.50
2020,09,30,11,19,19.50
2020,09,30,11,20,19.60
2020,09,30,11,21,19.60
2020,09,30,11,22,19.60
2020,09,30,11,23,19.70
2020,09,30,11,24,19.70
2020,09,30,11,25,19.80
2020,09,30,11,26,19.80
2020,09,30,11,27,19.90
2020,09,30,11,28,19.90
2020,09,30,11,29,20.00
2020,09,30,11,30,20.10
2020,09,30,11,31,20.10
2020,09,30,11,32,20.10
2020,09,30,11,33,20.20
2020,09,30,11,34,20.20
2020,09,30,11,35,20.30
2020,09,30,11,36,20.30
2020,09,30,11,37,20.30
2020,09,30,11,38,20.40
2020,09,30,11,39,20.40
2020,09,30,11,40,20.50
2020,09,30,11,41,20.50
2020,09,30,11,42,20.60
2020,09,30,11,43,20.60
2020,09,30,11,44,20.60
2020,09,30,11,45,20.60
2020,09,30,11,46,20.70
2020,09,30,11,47,20.70
2020,09,30,11,48,20.70
2020,09,30,11,49,20.80
2020,09,30,11,50,20.80
2020,09,30,11,51,20.80
2020,09,30,11,52,20.90
2020,09,30,11,53,20.90
2020,09,30,11,54,21.00
2020,09,30,11,55,21.00
2020,09,30,11,56,21.00
2020,09,30,11,57,21.10
2020,09,30,11,58,21.10
2020,09,30,11,59,21.10
2020,09,30,12,00,21.10
2020,09,30,12,01,21.10
2020,09,30,12,02,21.20
2020,09,30,12,03,21.20
2020,09,30,12,04,21.20
2020,09,30,12,05,21.30
2020,09,30,12,06,21.30
2020,09,30,12,07,21.30
2020,09,30,12,08,21.30
2020,09,30,12,09,21.30
2020,09,30,12,10,21.40
2020,09,30,12,11,21.40
2020,09,30,12,12,21.40
2020,09,30,12,13,21.40
2020,09,30,12,14,21.40
2020,09,30,12,15,21.40
2020,09,30,12,16,21.30
2020,09,30,12,17,21.30
2020,09,30,12,18,21.40
2020,09,30,12,19,21.40
2020,09,30,12,20,21.40
2020,09,30,12,21,21.40
2020,09,30,12,22,21.40
2020,09,30,12,23,21.40
2020,09,30,12,24,21.50
2020,09,30,12,25,21.50
2020,09,30,12,26,21.60
2020,09,30,12,27,21.60
2020,09,30,12,28,21.70
2020,09,30,12,29,21.70
2020,09,30,12,30,21.70
2020,09,30,12,31,21.80
2020,09,30,12,32,21.80
2020,09,30,12,33,21.80
2020,09,30,12,34,21.80
2020,09,30,12,35,21.80
2020,09,30,12,36,21.80
2020,09,30,12,37,21.80
2020,09,30,12,38,21.80
2020,09,30,12,39,21.70
2020,09,30,12,40,21.70
2020,09,30,12,41,21.70
2020,09,30,12,42,21.80
2020,09,30,12,43,21.70
2020,09,30,12,44,21.80
2020,09,30,12,45,21.80
2020,09,30,12,46,21.80
2020,09,30,12,47,21.80
2020,09,30,12,48,21.80
2020,09,30,12,49,21.80
2020,09,30,12,50,21.90
2020,09,30,12,51,21.90
2020,09,30,12,52,21.90
2020,09,30,12,53,21.90
2020,09,30,12,54,22.00
2020,09,30,12,55,22.00
2020,09,30,12,56,22.00
2020,09,30,12,57,22.10
2020,09,30,12,58,22.10
2020,09,30,12,59,22.10
2020,09,30,13,00,22.10
2020,09,30,13,01,22.10
2020,09,30,13,02,22.10
2020,09,30,13,03,22.10
2020,09,30,13,04,22.20
2020,09,30,13,05,22.20
2020,09,30,13,06,22.20
2020,09,30,13,07,22.20
2020,09,30,13,08,22.20
2020,09,30,13,09,22.20
2020,09,30,13,10,22.20
2020,09,30,13,11,22.20
2020,09,30,13,12,22.20
2020,09,30,13,13,22.20
2020,09,30,13,14,22.30
2020,09,30,13,15,22.30
2020,09,30,13,16,22.30
2020,09,30,13,17,22.30
2020,09,30,13,18,22.30
2020,09,30,13,19,22.30
2020,09,30,13,20,22.30
2020,09,30,13,21,22.30
2020,09,30,13,22,22.30
2020,09,30,13,23,22.30
2020,09,30,13,24,22.30
2020,09,30,13,25,22.30
2020,09,30,13,26,22.20
2020,09,30,13,27,22.30
2020,09,30,13,28,22.30
2020,09,30,13,29,22.30
2020,09,30,13,30,22.30
2020,09,30,13,31,22.30
2020,09,30,13,32,22.30
2020,09,30,13,33,22.20
2020,09,30,13,34,22.20
2020,09,30,13,35,22.20
2020,09,30,13,36,22.30
2020,09,30,13,37,22.30
2020,09,30,13,38,22.30
2020,09,30,13,39,22.30
2020,09,30,13,40,22.30
2020,09,30,13,41,22.30
2020,09,30,13,42,22.30
2020,09,30,13,43,22.30
2020,09,30,13,44,22.30
2020,09,30,13,45,22.30
2020,09,30,13,46,22.20
2020,09,30,13,47,22.20
2020,09,30,13,48,22.20
2020,09,30,13,49,22.20
2020,09,30,13,50,22.20
2020,09,30,13,51,22.10
2020,09,30,13,52,22.10
2020,09,30,13,53,22.10
2020,09,30,13,54,22.10
2020,09,30,13,55,22.00
2020,09,30,13,56,22.00
2020,09,30,13,57,21.90
2020,09,30,13,58,21.90
2020,09,30,13,59,21.80
2020,09,30,14,00,21.80
2020,09,30,14,01,21.80
2020,09,30,14,02,21.80
2020,09,30,14,03,21.80
2020,09,30,14,04,21.80
2020,09,30,14,05,21.80
2020,09,30,14,06,21.80
2020,09,30,14,07,21.70
2020,09,30,14,08,21.70
2020,09,30,14,09,21.80
2020,09,30,14,10,21.80
2020,09,30,14,11,21.80
2020,09,30,14,12,21.80
2020,09,30,14,13,21.70
2020,09,30,14,14,21.70
2020,09,30,14,15,21.70
2020,09,30,14,16,21.80
2020,09,30,14,17,21.80
2020,09,30,14,18,21.80
2020,09,30,14,19,21.80
2020,09,30,14,20,21.80
2020,09,30,14,21,21.80
2020,09,30,14,22,21.80
2020,09,30,14,23,21.80
2020,09,30,14,24,21.80
2020,09,30,14,25,21.90
2020,09,30,14,26,21.90
2020,09,30,14,27,21.90
2020,09,30,14,28,21.90
2020,09,30,14,29,21.90
2020,09,30,14,30,21.90
2020,09,30,14,31,21.90
2020,09,30,14,32,21.90
2020,09,30,14,33,21.90
2020,09,30,14,34,21.90
2020,09,30,14,35,22.00
2020,09,30,14,36,22.00
2020,09,30,14,37,22.00
2020,09,30,14,38,22.00
2020,09,30,14,39,22.00
2020,09,30,14,40,22.00
2020,09,30,14,41,22.10
2020,09,30,14,42,22.10
2020,09,30,14,43,22.10
2020,09,30,14,44,22.10
2020,09,30,14,45,22.10
2020,09,30,14,46,22.10
2020,09,30,14,47,22.10
2020,09,30,14,48,22.20
2020,09,30,14,49,22.20
2020,09,30,14,50,22.20
2020,09,30,14,51,22.20
2020,09,30,14,52,22.20
2020,09,30,14,53,22.20
2020,09,30,14,54,22.20
2020,09,30,14,55,22.20
2020,09,30,14,56,22.20
2020,09,30,14,57,22.20
2020,09,30,14,58,22.20
2020,09,30,14,59,22.20
2020,09,30,15,00,22.20
2020,09,30,15,01,22.20
2020,09,30,15,02,22.20
2020,09,30,15,03,22.30
2020,09,30,15,04,22.30
2020,09,30,15,05,22.30
2020,09,30,15,06,22.30
2020,09,30,15,07,22.30
2020,09,30,15,08,22.40
2020,09,30,15,09,22.40
2020,09,30,15,10,22.50
2020,09,30,15,11,22.50
2020,09,30,15,12,22.60
2020,09,30,15,13,22.60
2020,09,30,15,14,22.70
2020,09,30,15,15,22.70
2020,09,30,15,16,22.80
2020,09,30,15,17,22.80
2020,09,30,15,18,22.90
2020,09,30,15,19,22.90
2020,09,30,15,20,22.90
2020,09,30,15,21,22.90
2020,09,30,15,22,22.80
2020,09,30,15,23,22.80
2020,09,30,15,24,22.80
2020,09,30,15,25,22.80
2020,09,30,15,26,22.80
2020,09,30,15,27,22.80
2020,09,30,15,28,22.70
2020,09,30,15,29,22.70
2020,09,30,15,30,22.60
2020,09,30,15,31,22.60
2020,09,30,15,32,22.60
2020,09,30,15,33,22.60
2020,09,30,15,34,22.60
2020,09,30,15,35,22.60
2020,09,30,15,36,22.60
2020,09,30,15,37,22.60
2020,09,30,15,38,22.60
2020,09,30,15,39,22.60
2020,09,30,15,40,22.60
2020,09,30,15,41,22.60
2020,09,30,15,42,22.60
2020,09,30,15,43,22.60
2020,09,30,15,44,22.60
2020,09,30,15,45,22.60
2020,09,30,15,46,22.60
2020,09,30,15,47,22.60
2020,09,30,15,48,22.60
2020,09,30,15,49,22.60
2020,09,30,15,50,22.50
2020,09,30,15,51,22.50
2020,09,30,15,52,22.40
2020,09,30,15,53,22.40
2020,09,30,15,54,22.40
2020,09,30,15,55,22.40
2020,09,30,15,56,22.30
2020,09,30,15,57,22.30
2020,09,30,15,58,22.30
2020,09,30,15,59,22.30
2020,09,30,16,00,22.40
2020,09,30,16,01,22.40
2020,09,30,16,02,22.40
2020,09,30,16,03,22.40
2020,09,30,16,04,22.40
2020,09,30,16,05,22.50
2020,09,30,16,06,22.50
2020,09,30,16,07,22.50
2020,09,30,16,08,22.50
2020,09,30,16,09,22.50
2020,09,30,16,10,22.50
2020,09,30,16,11,22.50
2020,09,30,16,12,22.50
2020,09,30,16,13,22.50
2020,09,30,16,14,22.40
2020,09,30,16,15,22.30
2020,09,30,16,16,22.30
2020,09,30,16,17,22.30
2020,09,30,16,18,22.30
2020,09,30,16,19,22.20
2020,09,30,16,20,22.20
2020,09,30,16,21,22.20
2020,09,30,16,22,22.20
2020,09,30,16,23,22.20
2020,09,30,16,24,22.10
2020,09,30,16,25,22.10
2020,09,30,16,26,22.10
2020,09,30,16,27,22.10
2020,09,30,16,28,22.10
2020,09,30,16,29,22.10
2020,09,30,16,30,22.10
2020,09,30,16,31,22.10
2020,09,30,16,32,22.10
2020,09,30,16,33,22.10
2020,09,30,16,34,22.20
2020,09,30,16,35,22.20
2020,09,30,16,36,22.20
2020,09,30,16,37,22.20
2020,09,30,16,38,22.20
2020,09,30,16,39,22.20
2020,09,30,16,40,22.20
2020,09,30,16,41,22.20
2020,09,30,16,42,22.20
2020,09,30,16,43,22.20
2020,09,30,16,44,22.20
2020,09,30,16,45,22.20
2020,09,30,16,46,22.30
2020,09,30,16,47,22.30
2020,09,30,16,48,22.40
2020,09,30,16,49,22.40
2020,09,30,16,50,22.50
2020,09,30,16,51,22.60
2020,09,30,16,52,22.60
2020,09,30,16,53,22.60
2020,09,30,16,54,22.60
2020,09,30,16,55,22.60
2020,09,30,16,56,22.60
2020,09,30,16,57,22.60
2020,09,30,16,58,22.60
2020,09,30,16,59,22.60
2020,09,30,17,00,22.60
2020,09,30,17,01,22.60
2020,09,30,17,02,22.60
2020,09,30,17,03,22.60
2020,09,30,17,04,22.60
2020,09,30,17,05,22.70
2020,09,30,17,06,22.70
2020,09,30,17,07,22.70
2020,09,30,17,08,22.60
2020,09,30,17,09,22.60
2020,09,30,17,10,22.60
2020,09,30,17,11,22.60
2020,09,30,17,12,22.60
2020,09,30,17,13,22.60
2020,09,30,17,14,22.50
2020,09,30,17,15,22.50
2020,09,30,17,16,22.50
2020,09,30,17,17,22.40
2020,09,30,17,18,22.40
2020,09,30,17,19,22.40